www.pogodaiklimat.ru

Погода и климат >> Архив погоды >> Россия >> Ямало-Ненецкий АО >> Тазовский


АРХИВ ПОГОДЫ в Тазовском

Время (UTC), дата Ветер
(напр.,м/с)
 
Видим.   Явления Облачность Т
(С)
Тd
(С)
f
(%)
Тe
(С)
Тes
(С)
Комфортность P
(гПа)
Po
(гПа)
Тmin
(С)
Tmax
(С)
R
(мм)
R24
(мм)
S
(см)
09 9.09 СЗ 4 20 км {ливн. осадки} 8/4 600 м
[Cb cap Ac trans]
+7.3 +0.4 62 +4 +5 1023.3 1019.8
12 9.09 З 3
{10}
50 км {ливн. осадки} 9/4 600 м
[Cb cap Ac trans]
+6.5 +2.0 73 +4 +4 1022.4 1019.0
15 9.09 ЮЗ 2 20 км слаб. ливневой дождь 10/10 630 м
[Cb calv]
+5.3 +3.1 86 +3 +3 1020.5 1017.1 +8.0 0.8
18 9.09 ЮЗ 5 20 км {ливн. осадки} 9/9 930 м
[Cb cap]
+3.4 +2.9 97 -2 -2 1018.0 1014.5
21 9.09 ЮЗ 5 20 км 8/0
[Ac trans]
+4.7 +4.3 97 -0 -0 1015.0 1011.6
00 10.09 ЮЗ 5 20 км слаб. ливневой дождь 10/5 700 м
[Cb cap Ac As]
+4.6 +4.0 96 -0 -0 1010.7 1007.3
03 10.09 Ю 7-11
{11}
10 км слаб. ливневой дождь 10/6 480 м
[Cb cap Ac As]
+4.9 +3.9 93 -1 -1 1004.5 1001.1 +2.6 4
06 10.09 ЮЗ 9-14
{14}
10 км слаб. дождь 10/0 180 м
[As op]
+5.8 +5.1 95 -0 -0 999.5 996.2
09 10.09 СЗ 9-14
{14}
20 км в посл. час дождь 10/10 240 м
[Sc diur, vesp]
+8.0 +6.6 91 +3 +3 997.7 994.4
12 10.09 СЗ 8-14
{14}
20 км слаб. ливневой дождь 9/9 240 м
[Cb calv]
+6.0 +4.3 89 0 0 1000.2 996.8
15 10.09 С 9-16
{18}
20 км {ливн. осадки} 10/10 420 м
[Cb calv]
+4.4 +1.5 81 -2 -2 1004.2 1000.8 +8.5 4
18 10.09 С 8-16
{20}
20 км {ливн. осадки} 9/0
[Ac trans]
+2.9 -2.5 68 -3 -3 1007.7 1004.3
21 10.09 СЗ 6-14
{17}
20 км 10/10 1200 м
[Sc]
+2.8 -2.1 70 -3 -3 1009.4 1005.9
00 11.09 СЗ 5-12
{17}
20 км 6/3 300 м
[Cb cap Ac trans]
+1.4 -1.7 80 -4 -4 1010.4 1007.0
03 11.09 СЗ 8-14
{16}
20 км {ливн. осадки} 8/6 600 м
[Cb calv Ac trans]
+2.1 -2.9 69 -4 -4 1010.3 1006.8 +0.8 0.3
06 11.09 СЗ 11-18
{20}
20 км {ливн. осадки} 8/8 480 м
[Cb calv]
+3.6 -3.4 60 -3 -3 1008.7 1005.3
09 11.09 СЗ 9-16
{23}
20 км {ливн. осадки} 8/8 600 м
[Cb calv]
+4.1 -4.4 54 -2 -2 1009.3 1005.9
12 11.09 С 8-14
{23}
50 км {ливн. осадки} 8/4 600 м
[Cb cap Ac trans]
+3.1 -3.9 60 -3 -3 1012.4 1008.9
15 11.09 С 7-13
{15}
20 км 3/3 1000 м
[Sc]
+2.5 -2.4 70 -4 -4 1013.2 1009.7 +4.6 0.4
18 11.09 СЗ 7-17
{17}
20 км ясно +1.8 -2.8 71 -4 -4 1013.5 1010.0
21 11.09 С 7-13
{17}
20 км ясно +1.3 -3.1 72 -5 -5 1013.9 1010.4
00 12.09 С 8-16
{17}
20 км 9/9 1230 м
[Sc]
+1.6 -3.9 67 -5 -5 1014.3 1010.8
03 12.09 С 8-14
{17}
20 км 9/6 800 м
[Sc Ac trans]
+1.0 -3.7 71 -6 -6 1014.5 1011.0 +0.9
06 12.09 СЗ 6-13
{17}
50 км 6/4 600 м
[Sc Ac trans]
+3.6 -1.7 68 -2 -1 1014.4 1010.9
09 12.09 СЗ 6-12
{14}
50 км 8/5 960 м
[Sc Ac trans]
+4.8 -0.8 67 -0 0 1015.2 1011.8
12 12.09 СЗ 5
{14}
50 км 9/9 960 м
[Sc]
+4.1 -0.3 73 -1 -1 1016.0 1012.5
15 12.09 СЗ 5-10
{11}
20 км 9/9 1200 м
[Sc]
+3.6 +0.1 78 -1 -1 1016.0 1012.6 +5.1
18 12.09 С 5
{11}
20 км 9/0
[Ac trans]
+3.3 +0.6 82 -2 -2 1015.6 1012.1
21 12.09 С 5 20 км 9/9 480 м
[Cb cap]
+2.2 -0.4 83 -3 -3 1014.9 1011.4
00 13.09 С 5 20 км 9/9 300 м
[Cb cap]
+2.2 -0.4 83 -3 -3 1014.9 1011.4
03 13.09 С 3 10 км слаб. дождь 10/10 180 м
[Sc]
+1.3 +0.1 92 -3 -3 1014.9 1011.4 +1.1 0.0
06 13.09 С 3 50 км {дождь} 8/8 400 м
[Sc]
+2.9 -0.4 79 -1 -0 1014.2 1010.7
09 13.09 СЗ 2 50 км 3/3 600 м
[Sc]
+4.5 -0.3 71 +2 +4 1013.8 1010.4
12 13.09 С 3 50 км 4/4 600 м
[Sc diur, vesp]
+4.2 -0.7 70 +1 +1 1013.6 1010.2
15 13.09 СВ 2 20 км ясно +1.3 -0.2 90 -2 -2 1013.6 1010.1 +5.0 0.0
18 13.09 С 2 20 км ясно +0.4 -0.3 95 -3 -3 1013.4 1009.9
21 13.09 СВ 2 20 км ясно -1.0 -1.8 94 -5 -5 1013.3 1009.8
00 14.09 СВ 3 1000 м дымка 10/10 90 м
[St]
-2.3 -2.6 98 -8 -8 1013.8 1010.3
03 14.09 СВ 3 4000 м слаб. ливневой снег {туман} 9/8 180 м
[Cb cap Ac trans]
-2.2 -2.9 95 -7 -7 1014.4 1010.9 -2.8 0.0
06 14.09 С 3 10 км слаб. ливневой снег {туман} 9/8 240 м
[Cb cap Ac trans]
-1.2 -3.6 84 -6 -6 1014.5 1010.9
09 14.09 С 3 50 км {ливн. осадки} 9/9 480 м
[Sc]
+0.4 -3.2 77 -4 -4 1014.7 1011.2
12 14.09 СВ 2 50 км {ливн. осадки} 6/6 700 м
[Sc]
+1.3 -3.1 72 -2 -2 1014.8 1011.3
15 14.09 СВ 3 20 км 10/10 540 м
[Sc]
+0.4 -2.7 80 -4 -4 1015.1 1011.6 +1.6 0.0
18 14.09 СВ 2 20 км 10/10 540 м
[Sc]
-0.3 -3.0 82 -4 -4 1014.6 1011.1
21 14.09 В 2 20 км 10/10 480 м
[Sc]
-0.4 -3.2 81 -4 -4 1014.8 1011.3
00 15.09 З 2 20 км 10/10 420 м
[Sc]
-1.3 -3.1 88 -5 -5 1014.7 1011.2
03 15.09 ЮЗ 4 50 км 9/9 240 м
[St]
+0.4 -2.3 82 -5 -5 1014.4 1010.9 -1.3
06 15.09 ЮЗ 2 50 км 10/10 420 м
[Sc]
+2.4 -0.9 79 -1 -1 1014.1 1010.6
09 15.09 В 1 50 км 9/9 570 м
[Sc]
+3.8 -0.9 71 +3 +3 1013.6 1010.2
12 15.09 ЮВ 3 50 км 3/3 600 м
[Sc diur, vesp Ac trans]
+2.6 -1.0 77 -1 -1 1013.0 1009.5
15 15.09 ЮВ 4 20 км 5/0
[Ac trans]
+1.4 -0.6 87 -4 -4 1011.8 1008.3 +4.5
18 15.09 ЮВ 5 20 км 8/0
[Ac trans]
+0.9 -2.0 81 -5 -5 1010.4 1007.0
21 15.09 ЮВ 6-10
{11}
20 км 8/0
[Ac trans]
+1.1 -2.6 76 -5 -5 1009.1 1005.6
00 16.09 В 8-12
{12}
4000 м слаб. ливневой снег 10/8 150 м
[Cb cap Ac As]
-0.2 -0.6 97 -8 -8 1007.2 1003.7
03 16.09 В 9-14
{15}
10 км слаб. снег 10/0 150 м
[As op]
+0.2 -0.1 98 -8 -8 1004.4 1001.0 -0.2 2 3
06 16.09 ЮВ 9-14
{15}
2000 м слаб. дождь 10/0 90 м
[As op]
+1.1 +0.8 98 -7 -7 1001.9 998.5

 

Местоположение метеостанции Тазовский (Ямало-Ненецкий АО, Россия): широта 67.47 долгота 78.73 высота над уровнем моря 28 м.

В архиве по умолчанию представлена погода в Тазовском за последнюю неделю. Архивные данные за месяц целиком и за предыдущие месяцы, начиная с января 2011 года, Вы можете получить, выбрав интересующий диапазон дат из раскрывающегося списка и нажав кнопку "Ввод!".


*Определитесь, кто Вы:
робот инопланетянин человек

Внимание! Время в таблицах - всемирное. Для получения местного времени необходимо прибавить поправку, которая равна 5 ч.

Смотрите также архив погоды в соседних городах и на ближайших метеорологических станциях:

Погода в Уренгое (Ямало-Ненецкий АО, Россия) (170 км)
Погода в Новом Уренгое (Ямало-Ненецкий АО, Россия) (175 км)
Погода в Антипаюте (Ямало-Ненецкий АО, Россия) (195 км)
Погода в Советской Речке (Красноярский край, Россия) (231 км)
Погода в Новом Порте (Ямало-Ненецкий АО, Россия) (249 км)
Погода в Красноселькупске (Ямало-Ненецкий АО, Россия) (256 км)
Погода в Пангодах (Ямало-Ненецкий АО, Россия) (261 км)
Погода в Ныде (Ямало-Ненецкий АО, Россия) (268 км)
Погода в Тарко-Сале (Ямало-Ненецкий АО, Россия) (287 км)
Погода в Игарке (Красноярский край, Россия) (334 км)

Пояснения к столбцам:

Ветер - указаны скорость ветра в м/с - средняя за 10 мин, порывы в срок и между сроками (в фигурных скобках) и направление, откуда дует ветер: С - северный, СВ - северо-восточный, В - восточный, ЮВ - юго-восточный, Ю - южный, ЮЗ - юго-западный, З - западный, СЗ - северо-западный.
Видимость - горизонтальная дальность видимости в метрах или километрах. При видимости от 1 до 10 км при отсутствии осадков обычно наблюдается дымка, при ухудшении видимости до 1 км и менее - туман. В сухую погоду видимость может ухудшаться дымом, пылью или мглою.
Явления - указаны атмосферные явления, наблюдавшиеся в срок или в последний час перед сроком; фигурными скобками обозначены явления, наблюдавшиеся между сроками (за 1-3 часа до срока); квадратными скобками обозначены град или гололедные отложения с указанием их диаметра в мм.
Облачность - указаны через наклонную черту общая и нижняя облачность в баллах и высота нижней границы облаков в метрах; квадратными скобками обозначены формы облаков: Ci - перистые, Cs - перисто-слоистые, Cc - перисто-кучевые, Ac - высококучевые, As - высокослоистые, Sc - слоисто-кучевые, Ns - слоисто-дождевые, Cu - кучевые, Cb - кучево-дождевые. Подробнее классификацию облаков см. в Атласе облаков (PDF).
T - Температура воздуха - температура, измеренная на высоте 2 м над землей.
Td - Температура точки росы - температура, при понижении до которой содержащийся в воздухе водяной пар достигнет насыщения.
f - Относительная влажность воздуха - влажноcть воздуха, измеренная на высоте 2 м над землей.
Te - Эффективная температура - температура, которую ощущает одетый по сезону человек в тени. Характеристика душности погоды. При расчете учитывается влияние влажности воздуха и скорости ветра на теплоощущения человека.
Tes - Эффективная температура на солнце - температура, которую ощущает человек, с поправкой на солнечный нагрев. Характеристика знойности погоды. Зависит от высоты солнца над горизонтом, облачности и скорости ветра. Ночью, в пасмурную погоду, а также при ветре 12 м/с и более поправка равна нулю.
P - Атмосферное давление - приведенное к уровню моря атмосферное давление.
Po - Атмосферное давление - измеренное на уровне метеостанции атмосферное давление.
Tmin - Минимальная температура - минимум температуры воздуха на высоте 2 м над землей.
Tmax - Максимальная температура - максимум температуры воздуха на высоте 2 м над землей.
R - Количество осадков - Количество выпавших осадков за период времени, мм. При наведении курсора мыши на число - период времени, за который выпало указанное количество осадков.
R24 - Количество осадков - Количество выпавших осадков за 24 часа, мм.
S - Снежный покров - Высота снежного покрова, см. При наведении курсора мыши на число - состояние снежного покрова и степень покрытия местности в баллах.